Location: Sommers-Bausch Observatory
(40.0037°N, 105.2635°W)
Time: 01:34:47
(UTC-06:00)

Daily predictions for brighter satellites

Satellite Brightness Start Highest point End
(mag) Time Altitude Azimuth Time Altitude Azimuth Time Altitude Azimuth
CZ-2D R/B 4.5 02:49:45 10° NNE 02:51:10 18° NNE 02:51:10 18° NNE
SL-16 R/B 4.2 03:15:01 24° N 03:15:01 24° N 03:17:18 10° NNW
Cosmos 2227 Rocket 3.9 03:31:57 27° N 03:31:57 27° N 03:34:33 10° NNE
Okean O Rocket 4.5 03:53:04 10° ENE 03:54:58 13° E 03:56:51 10° ESE
ISS -0.2 03:59:45 10° E 03:59:45 10° E 03:59:45 10° E
ADEOS II 3.4 03:58:35 10° NNE 04:03:24 35° E 04:05:08 28° SE
Meteor 1-27 Rocket 4.1 04:04:52 57° N 04:04:52 57° N 04:09:13 10° N
ARIANE 5 R/B 4.1 04:03:54 10° N 04:06:19 26° NNW 04:06:19 26° NNW
Resurs 1-4 Rocket 3.7 04:07:56 10° N 04:10:17 23° NNW 04:10:17 23° NNW
Cosmos 2297 Rocket 3.6 04:14:32 25° NNW 04:14:32 25° NNW 04:17:48 10° N
Lacrosse 5 rocket 3.9 04:17:51 12° N 04:17:51 12° N 04:18:35 10° N
DELTA 2 R/B (1) 3.8 04:17:51 60° SE 04:17:51 60° SE 04:22:51 10° E
Okean 1 Rocket 4.2 04:14:13 10° N 04:18:29 43° ENE 04:20:03 31° SE
CZ-4C R/B 3.3 04:23:01 31° NNW 04:23:01 31° NNW 04:27:53 10° NNE
Cosmos 2026 Rocket 3.9 04:19:00 10° NNW 04:24:30 63° WNW 04:24:30 63° WNW
Cosmos 1441 Rocket 4.4 04:26:57 39° ENE 04:26:57 39° ENE 04:29:48 10° NNE
Cosmos 1674 Rocket 4.3 04:33:33 42° N 04:33:33 42° N 04:36:34 10° N
CZ-2D R/B 3.9 04:30:32 10° NNW 04:32:29 18° NW 04:32:29 18° NW
Atlas Centaur 2 3.9 04:35:07 17° SSE 04:35:07 17° SSE 04:38:17 10° SE
Cosmos 2279 Rocket 3.9 04:36:17 57° SW 04:37:22 68° W 04:43:33 10° N
Meteor 1-5 Rocket 4.2 04:33:53 10° NNW 04:39:50 81° W 04:45:48 10° S
Tiangong 1 3.3 04:47:38 22° ENE 04:47:38 22° ENE 04:48:50 10° ENE
Cosmos 1603 3.6 04:42:29 10° NNW 04:48:09 90° WSW 04:53:49 10° SSE
Cosmos 407 Rocket 4.0 04:51:50 42° WNW 04:51:53 42° WNW 04:56:57 10° N
Cosmos 1975 Rocket 3.5 04:54:57 15° S 04:58:30 63° E 05:02:53 10° NNE
PSLV R/B 3.5 04:55:31 10° NNE 04:59:44 81° ESE 05:01:41 31° S
Cosmos 2227 4.4 05:03:13 40° WSW 05:04:42 50° WNW 05:10:12 10° NNE
PAYLOAD B 4.4 04:59:13 10° NNE 05:04:45 71° ESE 05:10:13 10° S
Okean 3 4.0 05:12:29 37° WNW 05:12:29 37° WNW 05:16:25 10° N
Cosmos 1741 Rocket 4.2 05:08:00 12° S 05:12:48 73° ESE 05:18:02 10° NNE
Cosmos 405 Rocket 4.1 05:14:32 24° NW 05:14:32 24° NW 05:16:58 10° NNW
ATLAS 3B R/B 4.4 05:07:43 10° S 05:14:10 33° ESE 05:20:27 10° NE
Cosmos 1437 Rocket 3.1 05:11:05 10° N 05:14:59 67° E 05:18:55 10° SSE
Cosmos 1943 3.3 05:09:32 10° NNW 05:15:15 79° ENE 05:20:56 10° SSE
GPS 2-05 Rocket1 3.3 05:24:01 34° SSW 05:24:18 35° S 05:27:09 10° ESE
SL-8 R/B 3.9 05:25:31 23° SW 05:28:28 66° SE 05:33:15 10° ENE
Cosmos 2263 Rocket 2.1 05:23:52 11° SSW 05:29:16 83° WNW 05:35:00 10° NNE
Okean O Rocket 1.7 05:27:24 10° N 05:31:39 54° WNW 05:35:20 13° SSW
ISS -3.7 05:32:28 31° W 05:33:41 51° SW 05:36:54 10° SE
Cosmos 1850 Rocket 4.0 05:30:51 10° SSW 05:36:03 67° WNW 05:41:23 10° NNE
ASTEX 1 4.2 05:32:15 10° NNW 05:36:31 30° WNW 05:39:13 18° WSW
Cosmos 1140 Rocket 4.2 05:35:07 21° WSW 05:37:46 34° WNW 05:42:32 10° N
TELKOM 3 3.7 05:37:10 26° SSW 05:38:10 44° SE 05:40:15 10° ENE
Abrixas rocket 2.1 05:37:47 29° WSW 05:39:18 75° NNW 05:42:33 10° NE
IRS-1C Rocket 4.0 05:35:17 10° N 05:40:33 70° WNW 05:45:48 10° SSW
Cosmos 1812 3.9 05:40:35 22° W 05:41:08 22° WNW 05:44:15 10° NNW
USA 215 3.8 05:35:01 10° ESE 05:41:25 62° NE 05:47:51 10° NW
ADEOS II 3.0 05:38:32 10° N 05:42:58 28° WNW 05:46:04 16° WSW
Cosmos 1975 2.9 05:41:26 10° NNW 05:45:28 59° W 05:49:30 10° S
Cosmos 332 Rocket 4.0 05:44:07 10° NNW 05:48:56 75° ENE 05:53:43 10° SSE
Meteor PRIRODA 3.7 05:46:25 10° N 05:50:01 53° WNW 05:53:37 10° SSW
Cosmos 2266 Rocket 4.4 05:44:16 10° NNW 05:50:13 42° W 05:56:09 10° SSW
CZ-4B R/B 4.1 05:48:05 10° NNW 05:51:28 24° WNW 05:53:43 15° WSW
SJ-6F 4.4 05:50:21 10° N 05:54:33 82° WNW 05:58:40 10° SSW
Cosmos 371 Rocket 3.6 05:50:45 10° NNW 05:55:38 73° ENE 06:00:29 10° SSE
CZ-4B R/B 3.4 05:50:50 10° N 05:55:52 46° WNW 06:00:54 10° SW
Cosmos 1570 Rocket 4.1 05:51:54 10° NNW 05:57:05 58° WSW 06:02:16 10° S
Molniya-1 2.6 05:55:57 20° SW 05:57:07 49° NW 05:58:51 10° NNE
Okean 1 4.1 05:54:57 10° SW 05:58:28 30° WNW 06:02:00 10° NNW
Cosmos 2208 Rocket 4.0 05:54:00 10° NNW 05:59:14 62° WSW 06:04:22 10° S
DELTA 2 R/B (1) 3.6 05:58:37 13° W 06:03:44 88° S 06:09:19 10° E
Cosmos 1500 4.5 06:03:14 10° NW 06:05:58 19° W 06:08:43 10° SW
CZ-4B R/B 4.1 06:03:37 10° N 06:07:16 43° WNW 06:11:03 10° SW
CZ-3 R/B 3.3 05:52:57 10° WSW 06:07:25 32° S 06:12:27 10° ESE
COSMO-SKYMED 1 3.0 06:04:21 10° SSE 06:08:39 68° ENE 06:12:59 10° N
USA 116 3.4 06:05:30 10° S 06:08:50 49° W 06:11:57 10° NNW
USA 238 DEB 4.2 06:08:43 10° SSW 06:15:35 69° ESE 06:22:32 10° NE
USA 238 4.2 06:08:50 10° SSW 06:15:42 68° ESE 06:22:39 10° NE
Meteor 2-11 Rocket 4.5 06:10:07 10° SSW 06:16:07 63° W 06:22:10 10° N
Meteor 1-31 Rocket 3.6 06:14:26 10° N 06:17:53 30° WNW 06:21:17 10° SW
EO 1 Del DPAF 3.4 06:14:25 10° S 06:18:08 50° W 06:21:52 10° NNW
MTI 4.4 06:16:38 10° SSW 06:19:37 35° W 06:22:39 10° NNW
Meteor 2-9 Rocket 4.2 06:16:53 10° N 06:22:17 88° W 06:27:49 10° S
